Flag for Netherlands Weather past 2 weeks in Montfoort, Netherlands

Now
64 °F

Overcast.


Feels Like: 64 °F
Forecast: 55 / 67 °F
Wind: 1 mph from Southwest

Location: De Bilt

Current Time: Sep 30, 2014 at 7:59:01 PM

Latest Report: Sep 30, 2014 at 7:00 PM


Visibility: 10 mi

Pressure: 30.26 "Hg

Humidity: 83%

Dew point: 59 °F

Location of MontfoortLocation

Historic Weather in Montfoort — Graph

°F

Montfoort temperature yesterday

Maximum temperature yesterday: 67 °F (at 3:00 PM)
Minimum temperature yesterday: 54 °F (at 3:00 AM)
Average temperature yesterday: 60 °F

Past Weeks' High & Low Weather Summary

 TemperatureHumidityPressure
High77 °F (Sep 18, 3:00 PM)100% (Sep 16, 2:00 AM)30.37 "Hg (Sep 16, 2:00 AM)
Low41 °F (Sep 23, 5:00 AM)48% (Sep 22, 2:00 PM)29.80 "Hg (Sep 24, 4:00 PM)
Average60 °F85%30.06 "Hg
* Reported Sep 15 6:00 PM — Sep 30 6:00 PM, Montfoort, Weather by CustomWeather, © 2014

Note: Actual official high and low records may vary slightly from our data, if they occured in-between our weather recording intervals... More about our weather records

Advertising

Montfoort weather history for previous 24 hours

 ConditionsComfort  
Time TempWeatherWind HumidityBarometerVisibility
6:00 PM
Sep 30
66 °FSunny.3 mph73%30.25 "Hg12 mi
5:00 PM67 °FScattered clouds.5 mph71%30.26 "Hg11 mi
4:00 PM67 °FOvercast.3 mph75%30.26 "Hg8 mi
3:00 PM67 °FOvercast.3 mph72%30.25 "Hg11 mi
2:00 PM68 °FPartly sunny.5 mph73%30.25 "Hg10 mi
1:00 PM67 °FOvercast.5 mph80%30.25 "Hg7 mi
12:00 PM65 °FFog.3 mph82%30.24 "Hg5 mi
11:00 AM63 °FFog.3 mph90%30.24 "Hg3 mi
10:00 AM61 °FFog.5 mph95%30.23 "Hg2 mi
9:00 AM60 °FFog.3 mph98%30.21 "Hg2 mi
8:00 AM60 °FFog.3 mph99%30.20 "Hg1 mi
7:00 AM60 °FFog.3 mph99%30.19 "Hg1 mi
6:00 AM61 °FFog.3 mph99%30.18 "Hg1 mi
5:00 AM61 °FFog.3 mph100%30.18 "Hg1 mi
4:00 AM61 °FOvercast.2 mph100%30.17 "Hg1 mi
3:00 AM62 °FRain showers. Overcast.3 mph98%30.17 "Hg2 mi
2:00 AM62 °FLight rain. Low clouds.3 mph98%30.17 "Hg2 mi
1:00 AM61 °FRain showers. Low clouds.2 mph99%30.17 "Hg1 mi
12:00 AM61 °FFog.2 mph97%30.18 "Hg2 mi
11:00 PM
Sep 29
61 °FFog.2 mph97%30.18 "Hg2 mi
10:00 PM61 °FOvercast.2 mph99%30.18 "Hg2 mi
9:00 PM61 °FLight rain. Low clouds.2 mph99%30.18 "Hg2 mi
8:00 PM62 °FRain. Low clouds.2 mph99%30.18 "Hg1 mi
7:00 PM62 °FRain. Overcast.2 mph98%30.17 "Hg3 mi
Weather by CustomWeather, © 2014

See weather overviewHow to use our weather pages